Location: Houston
(29.7630°N, 95.3630°W)
Time: 09:07:07
(UTC-05:00)

ISS - All Passes

Search period start: 21 October 2017 00:00
Search period end: 31 October 2017 00:00
Orbit: 401 x 408 km, 51.6° (Epoch: 22 October)

Date Brightness Start Highest point End Pass type
(mag) Time Alt. Az. Time Alt. Az. Time Alt. Az.
21 Oct - 09:02:03 10° SSW 09:04:54 29° SE 09:07:47 10° ENE daylight
21 Oct - 10:39:08 10° W 10:41:24 17° NW 10:43:40 10° N daylight
21 Oct - 17:10:41 10° NNW 17:13:28 25° NE 17:16:16 10° E daylight
21 Oct - 18:47:26 10° W 18:49:47 18° SW 18:52:07 10° S daylight
22 Oct - 08:11:06 10° SSE 08:12:44 13° SE 08:14:21 10° E daylight
22 Oct - 09:45:56 10° WSW 09:48:56 33° NW 09:51:55 10° NNE daylight
22 Oct - 16:19:10 10° N 16:20:58 14° NE 16:22:46 10° ENE daylight
22 Oct - 17:54:27 10° WNW 17:57:34 42° SW 18:00:40 10° SSE daylight
23 Oct - 08:53:18 10° SW 08:56:32 80° NW 08:59:48 10° NE daylight
23 Oct - 17:02:00 10° NW 17:05:16 76° NE 17:08:31 10° SE daylight
24 Oct - 08:01:11 10° SSW 08:04:14 39° SE 08:07:18 10° ENE daylight
24 Oct - 09:38:59 10° WNW 09:40:50 14° NW 09:42:41 10° N daylight
24 Oct - 16:09:52 10° NNW 16:12:52 32° NE 16:15:51 10° ESE daylight
24 Oct - 17:47:16 10° W 17:49:05 14° SW 17:50:52 10° SSW daylight
25 Oct - 07:09:47 10° S 07:12:00 17° SE 07:14:14 10° E daylight
25 Oct - 08:45:29 10° W 08:48:18 26° NW 08:51:06 10° NNE daylight
25 Oct - 15:18:07 10° N 15:20:21 17° NE 15:22:34 10° E daylight
25 Oct - 16:53:55 10° WNW 16:56:51 31° SW 16:59:46 10° SSE daylight
26 Oct - 07:52:39 10° SW 07:55:50 59° NW 07:59:03 10° NE daylight
26 Oct - 16:01:17 10° NW 16:04:32 79° SW 16:07:47 10° SE daylight
27 Oct - 07:00:18 10° SSW 07:03:27 54° SE 07:06:39 10° NE visible
27 Oct - 08:38:54 10° WNW 08:40:09 12° NW 08:41:25 10° NNW daylight
27 Oct - 15:09:00 10° NNW 15:12:08 42° NE 15:15:14 10° ESE daylight
27 Oct - 16:47:32 10° WSW 16:48:15 11° SW 16:48:57 10° SW daylight
28 Oct - 06:08:33 10° S 06:11:10 22° SE 06:13:47 10° ENE visible
28 Oct - 07:45:00 10° W 07:47:33 21° NW 07:50:06 10° NNE daylight
28 Oct - 14:17:03 10° NNW 14:19:36 21° NE 14:22:09 10° E daylight
28 Oct - 15:53:20 10° WNW 15:56:00 23° SW 15:58:40 10° S daylight
29 Oct - 05:18:43 10° SE 05:18:55 10° SE 05:19:07 10° ESE visible
29 Oct - 06:51:55 10° WSW 06:55:01 43° NW 06:58:09 10° NNE visible
29 Oct - 13:25:48 10° NNE 13:26:58 11° NE 13:28:09 10° NE daylight
29 Oct - 15:00:29 10° NW 15:03:41 57° SW 15:06:52 10° SSE daylight
30 Oct - 05:59:21 10° SW 06:02:35 75° SE 06:05:50 10° NE visible
30 Oct - 14:08:02 10° NW 14:11:15 56° NE 14:14:28 10° SE daylight
